Regional Weather Roundup
Issued by NWS New Orleans/Baton Rouge, LA

Home | Current Version | Previous Version | Text Only | Print | Product List | Glossary On
Versions: 1 2 3 4 5 6 7 8 9 10 11 12 13 14 15 16 17 18 19 20 21 22 23 24 25 26 27 28 29 30 31 32 33 34 35 36 37 38 39 40 41 42 43 44 45 46 47 48 49 50
785
ASUS44 KLIX 310412
RWRLIX
NEW ORLEANS REGIONAL WEATHER ROUNDUP
NATIONAL WEATHER SERVICE NEW ORLEANS LA
1100 PM CDT SAT JUL 30 2016

NOTE: "FAIR" INDICATES FEW OR NO CLOUDS BELOW 12,000 FEET WITH NO
      SIGNIFICANT WEATHER AND/OR OBSTRUCTIONS TO VISIBILITY.
      SKY/WX - SKY CONDITION AND SIGNIFICANT WEATHER.
      TMP - AIR TEMPERATURE.     DP    - DEWPOINT TEMPERATURE.
      RH  - RELATIVE HUMIDITY.   PRES  - PRESSURE.
      HI  - HEAT INDEX.          WCI   - WIND CHILL INDEX.

*  THESE STATIONS ARE NOT NWS OR FAA STATIONS AND ARE NOT UNDER
   NWS QUALITY CONTROL.

LAZ038-040-048-061>063-065>067-069-310500-
SOUTHEAST LOUISIANA

CITY           SKY/WX    TMP DP  RH WIND       PRES   REMARKS
N.O. AUDUBON     N/A     84  78  83 MISG        N/A
N.O. INTL ARPT PTCLDY    85  75  72 SW6       30.03R
N.O. LAKEFRONT CLEAR     85  76  74 SW7       30.03S
N.O. DOWNTOWN*   N/A     86  77  74 S3        30.04R HX  97
RESERVE*         N/A     80  78  93 CALM      30.04R
SLIDELL        CLEAR     79  77  94 CALM      30.03R
BATON ROUGE    CLEAR     79  75  87 NE5       30.04R
BOOTHVILLE     PTCLDY    84  77  79 W5        30.05R
BELLE CHASSE   CLEAR     79  77  94 CALM      30.03R
BOGALUSA*        N/A     78  74  86 CALM      30.07R
GALLIANO*      CLEAR     74  74 100 CALM      30.03S
NEW ROADS*       N/A     78  76  93 CALM      30.04R
GONZALES*        N/A     79  78  96 CALM      30.03S
HAMMOND*       CLOUDY    77  72  83 CALM      30.04S
HOUMA*         CLEAR     78  77  96 CALM      30.03S
PORT FOURCHON* CLEAR     86  75  70 SW5       30.03F HX  95

$$

MSZ070-080>082-310500-
SOUTHERN MISSISSIPPI

CITY           SKY/WX    TMP DP  RH WIND       PRES   REMARKS
MCCOMB         PTCLDY    80  74  81 CALM      30.06R
GULFPORT       CLEAR     81  77  88 CALM      30.03R
BILOXI         PTCLDY    84  78  82 W2        30.03R
PASCAGOULA     CLEAR     77  77 100 CALM      30.03R

$$

COASTAL OBSERVATIONS
LAKE AND NEARSHORE STATIONS

STATION/POSITION TIME  TEMP    WIND        PRES    WAVE
                       AIR SEA DIR/SP/G            HT/PER
                 (UTC) (F)     (DEG/KT/KT) (MB)    (FT/S)
PASCAGOULA       0306                      1016.4
WAVELAND YACHT   0300      88                N/A
GRAND ISLE       0300      90                N/A
SOUTHWEST PASS   0300          210/  4/  6   N/A
NEW CANAL        0300      88                N/A
SHELL BEACH      0300      90                N/A

OFFSHORE STATIONS

STATION/POSITION TIME  TEMP    WIND        PRES    WAVE
                       AIR SEA DIR/SP/G            HT/PER
                 (UTC) (F)     (DEG/KT/KT) (MB)    (FT/S)
64 S DAUPHIN ISL 0300   86 89  220/  6/  8 1017.0

$$





USA.gov is the U.S. government's official web portal to all federal, state and local government web resources and services.